DW8871 Weather Reports


Display with metric or nautical units.
time (UTC)temp
F
wind
direction
speed
MPH
gust
MPH
rain 1hr
in
rain 24hr
in
rain mn
in
humidity
%
barometer
mb
20260509194538 82 269 3.0 18.0 0.00 0.08 0.01 34 1008.2
20260509193037 82 269 4.0 14.0 0.00 0.08 0.01 35 1008.4
20260509191532 82 279 4.0 16.0 0.00 0.08 0.01 36 1008.5
20260509190030 81 266 5.0 12.0 0.00 0.08 0.01 36 1008.6
20260509184536 81 297 5.0 11.0 0.00 0.08 0.01 37 1008.8
20260509183032 80 272 4.0 12.0 0.00 0.08 0.01 37 1008.7
20260509181530 79 306 6.0 12.0 0.00 0.08 0.01 40 1008.9
20260509180032 79 271 2.0 12.0 0.00 0.08 0.01 43 1009.0
20260509174532 78 30 3.0 10.0 0.00 0.08 0.01 43 1009.2
20260509173030 77 249 4.0 14.0 0.00 0.08 0.01 48 1009.4
20260509171536 76 283 2.0 9.0 0.00 0.08 0.01 48 1009.6
20260509170030 75 261 3.0 13.0 0.00 0.08 0.01 51 1009.6
20260509164534 74 340 3.0 11.0 0.00 0.08 0.01 49 1009.6
20260509163031 73 250 3.0 9.0 0.00 0.08 0.01 52 1009.7
20260509161532 72 278 2.0 10.0 0.00 0.08 0.01 55 1009.6
20260509160030 71 296 1.0 9.0 0.00 0.08 0.01 56 1009.6
20260509154534 69 299 3.0 8.0 0.00 0.08 0.01 57 1009.7
20260509153033 68 246 1.0 7.0 0.00 0.08 0.01 59 1009.7
20260509151533 67 236 5.0 9.0 0.00 0.08 0.01 61 1009.7
20260509150031 65 305 4.0 11.0 0.00 0.08 0.01 63 1009.7
20260509144530 65 260 2.0 9.0 0.00 0.08 0.01 67 1009.7
20260509143038 64 249 2.0 8.0 0.00 0.08 0.01 71 1009.6
20260509141532 62 0 1.0 6.0 0.00 0.08 0.01 76 1009.6
20260509140049 61 234 3.0 7.0 0.00 0.08 0.01 77 1009.5
20260509134530 59 235 1.0 8.0 0.00 0.08 0.01 82 1009.4
20260509133029 58 255 1.0 7.0 0.00 0.08 0.01 86 1009.5
20260509131540 57 267 1.0 4.0 0.00 0.08 0.01 90 1009.5
20260509130032 55 0 0.0 6.0 0.00 0.08 0.01 93 1009.3
20260509124534 54 279 1.0 7.0 0.00 0.08 0.01 94 1009.2
20260509123032 53 0 1.0 7.0 0.00 0.08 0.01 95 1009.0
20260509121544 53 263 2.0 7.0 0.00 0.08 0.01 95 1008.9
20260509120034 52 246 1.0 5.0 0.00 0.08 0.01 95 1008.8
20260509114534 52 257 1.0 4.0 0.00 0.08 0.01 95 1008.6
20260509113030 52 242 2.0 5.0 0.00 0.08 0.01 95 1008.6
20260509111529 51 240 1.0 4.0 0.00 0.08 0.01 95 1008.4
20260509110031 51 286 0.0 3.0 0.00 0.08 0.01 95 1008.2
20260509104532 51 267 0.0 3.0 0.00 0.08 0.01 95 1008.3
20260509103030 51 0 0.0 2.0 0.00 0.08 0.01 95 1008.3
20260509101533 52 0 0.0 2.0 0.00 0.08 0.01 95 1008.3
20260509100033 53 0 0.0 3.0 0.00 0.08 0.01 95 1008.3
20260509094532 53 242 1.0 5.0 0.00 0.08 0.01 95 1008.3
20260509093032 53 223 1.0 3.0 0.00 0.08 0.01 95 1008.3
20260509091533 53 217 1.0 4.0 0.00 0.08 0.01 95 1008.4
20260509090028 53 246 1.0 3.0 0.00 0.08 0.01 95 1008.3
20260509084536 53 259 1.0 3.0 0.00 0.08 0.01 95 1008.2
20260509083043 52 274 0.0 3.0 0.00 0.08 0.01 95 1008.2
20260509081532 53 241 0.0 2.0 0.00 0.08 0.01 95 1008.2
20260509080031 53 241 1.0 4.0 0.00 0.08 0.01 95 1008.2
20260509074531 53 234 2.0 4.0 0.00 0.08 0.01 95 1008.3
20260509073030 53 230 1.0 3.0 0.00 0.08 0.01 95 1008.4
20260509071531 52 233 1.0 3.0 0.01 0.08 0.01 95 1008.3
20260509070036 53 239 1.0 2.0 0.01 0.08 0.01 94 1008.3
20260509064530 53 242 1.0 3.0 0.01 0.08 0.01 95 1008.6
20260509063034 52 0 1.0 3.0 0.01 0.08 0.01 94 1008.7
20260509061539 52 0 0.0 2.0 0.00 0.07 0.00 94 1008.8
20260509060030 52 0 0.0 0.0 0.00 0.07 0.00 94 1008.9
20260509054530 53 0 0.0 0.0 0.00 0.07 0.00 94 1009.0
20260509053039 53 0 0.0 0.0 0.00 0.07 0.00 94 1008.8
20260509051531 53 0 0.0 3.0 0.00 0.07 0.00 94 1009.0
20260509050032 53 0 0.0 1.0 0.00 0.07 0.00 94 1008.9
20260509044529 53 0 0.0 1.0 0.00 0.07 0.07 93 1008.9
20260509043030 53 0 0.0 0.0 0.00 0.07 0.07 93 1008.8
20260509041539 53 0 0.0 1.0 0.00 0.07 0.07 92 1008.9
20260509040030 54 0 0.0 1.0 0.00 0.07 0.07 93 1009.0
20260509034530 54 0 0.0 1.0 0.00 0.07 0.07 92 1009.1
20260509033032 55 0 0.0 1.0 0.00 0.07 0.07 93 1009.0
20260509031531 55 0 0.0 1.0 0.00 0.07 0.07 92 1009.1
20260509030032 54 0 0.0 1.0 0.00 0.07 0.07 91 1009.0
20260509024530 55 0 0.0 2.0 0.00 0.07 0.07 90 1008.7
20260509023030 56 0 0.0 0.0 0.00 0.07 0.07 90 1008.6
20260509021533 56 0 0.0 1.0 0.00 0.07 0.07 88 1008.4
20260509020030 57 0 0.0 2.0 0.00 0.07 0.07 88 1008.5
20260509014529 58 0 0.0 0.0 0.00 0.07 0.07 85 1008.2
20260509013029 60 0 0.0 0.0 0.00 0.07 0.07 83 1008.1
20260509011531 61 0 0.0 0.0 0.00 0.07 0.07 83 1008.0
20260509010045 63 0 0.0 0.0 0.00 0.07 0.07 80 1008.0
20260509004531 64 0 0.0 0.0 0.00 0.07 0.07 79 1007.9
20260509003028 64 0 0.0 2.0 0.00 0.07 0.07 79 1007.6
20260509001528 65 0 0.0 1.0 0.00 0.07 0.07 79 1007.6
20260509000028 64 0 0.0 0.0 0.00 0.07 0.07 80 1007.2
20260508234535 64 0 1.0 4.0 0.00 0.07 0.07 78 1007.3
20260508233029 65 0 0.0 7.0 0.00 0.07 0.07 78 1007.8
20260508231528 65 30 0.0 3.0 0.00 0.07 0.07 80 1007.8
20260508230038 64 0 0.0 2.0 0.00 0.07 0.07 83 1007.7
20260508224535 63 0 0.0 4.0 0.00 0.07 0.07 85 1007.4
20260508223027 62 293 2.0 7.0 0.02 0.07 0.07 88 1007.3
20260508221542 61 242 2.0 7.0 0.04 0.07 0.07 91 1007.0
20260508220033 60 234 1.0 7.0 0.05 0.07 0.07 90 1007.0
20260508214528 60 226 1.0 5.0 0.06 0.07 0.07 89 1008.0
20260508213029 60 0 0.0 2.0 0.04 0.04 0.04 87 1008.8
20260508211530 61 0 0.0 2.0 0.03 0.03 0.03 86 1009.0
20260508210030 62 0 0.0 4.0 0.02 0.02 0.02 85 1009.1
20260508204533 62 0 0.0 4.0 0.01 0.01 0.01 82 1009.1
20260508203032 63 0 0.0 1.0 0.00 0.00 0.00 79 1009.6
20260508201531 64 0 0.0 6.0 0.00 0.00 0.00 76 1009.2
20260508200031 66 0 0.0 5.0 0.00 0.00 0.00 75 1009.0